Aérodrome :
LOGIN :

S'inscrire | Disclaimer

   EN    FR    IT 

 










Légende :    VFR   VFR Marginal   IFR   IFR Intensif   IFR Très Intensif
Visi : 
Plafond : 
>= 8 km
>= 3000ft
5 à 8 km
1000 à 3000 ft
1500m à 5 km
500 à 1000 ft
800 à 1500m
200 à 500 ft
< 800m
< 200 ft
Symboles :   Orages  Brouillard  Fortes neiges  Fortes précipitations  Vent > 20 kt
SIGMETs :   Divers  Orages  Givrage  Turbulence  Onde Orograph.  Cendres Volcan.






- Altitude de l'aérodrome : 349 ft
- Code IATA : LPP


EFLP - Lappeenranta

DERNIER METAR :
  • 222020Z AUTO 04006KT 9000 SHRA OVC003 //////CB 06/06 Q0991

METARs EXPIRÉS :
  • 221950Z AUTO 07005KT 7000 SHRA OVC002 //////CB 06/06 Q0991
  • 221920Z AUTO 09006KT 5000 SHRA OVC002 //////CB 06/06 Q0991 RERA
  • 221850Z AUTO 09007KT 3300 -DZ OVC002 06/06 Q0991
  • 221820Z AUTO 10006KT 5000 -RA OVC001 06/06 Q0992
  • 221750Z AUTO 10006KT 070V130 5000 -RA OVC001 06/06 Q0992

Prévision TAF périmée.



MET'MAP, la Météo Aéronautique d'un coup d'oeil ! - Copyright ORBIFLY Décembre 2007 - Disclaimer

ORBIFLY MET'MAP TEAM :

Programmation & Développement : Alexandra Zaïnal
Sur une idée originale de : Baudouin d'Aumeries
Assistance à la programmation : Marc-Olivier Méhu
Soutien technique & logistique : Manuel Goepfert

Contact : metmap@orbifly.com




SOURCES & CREDITS :

   NOAA